CW2856 Weather Reports


time (UTC)temp
C
wind
direction
speed
KPH
gust
KPH
rain 1hr
cm
rain 24hr
cm
rain mn
cm
humidity
%
barometer
mb
20260507114817 6 177 3.2 4.8 0.00 0.00 0.00 91 1016.0
20260507113342 5 148 1.6 4.8 0.00 0.00 0.00 91 1016.0
20260507111822 5 146 3.2 4.8 0.00 0.00 0.00 91 1016.0
20260507110325 5 49 0.0 1.6 0.00 0.00 0.00 91 1016.0
20260507104829 6 49 0.0 4.8 0.00 0.00 0.00 91 1015.9
20260507103330 6 48 0.0 0.0 0.00 0.00 0.00 92 1015.8
20260507101851 6 48 0.0 0.0 0.00 0.00 0.00 92 1015.8
20260507100317 7 48 0.0 0.0 0.00 0.00 0.00 92 1015.8
20260507094838 7 48 0.0 0.0 0.00 0.00 0.00 92 1015.9
20260507093318 6 48 0.0 0.0 0.00 0.00 0.00 92 1015.8
20260507091822 6 48 0.0 0.0 0.00 0.00 0.00 92 1015.9
20260507090325 6 48 0.0 0.0 0.00 0.00 0.00 92 1015.8
20260507084825 5 48 0.0 0.0 0.00 0.00 0.00 92 1016.0
20260507083329 5 48 0.0 0.0 0.00 0.00 0.00 92 1016.1
20260507081831 4 48 0.0 0.0 0.00 0.00 0.00 92 1016.0
20260507080318 3 48 0.0 0.0 0.00 0.00 0.00 92 1015.9
20260507074818 3 48 0.0 0.0 0.00 0.00 0.00 92 1016.1
20260507073320 3 48 0.0 0.0 0.00 0.00 0.00 91 1016.0
20260507071825 3 48 0.0 0.0 0.00 0.00 0.00 91 1016.1
20260507070328 3 48 0.0 0.0 0.00 0.00 0.00 91 1016.3
20260507064814 3 48 0.0 0.0 0.00 0.00 0.00 91 1016.4
20260507063315 3 48 0.0 0.0 0.00 0.00 0.00 90 1016.5
20260507061817 4 48 0.0 0.0 0.00 0.00 0.00 91 1016.7
20260507060324 4 48 0.0 0.0 0.00 0.00 0.00 90 1016.6
20260507054825 4 48 0.0 0.0 0.00 0.00 0.00 90 1016.6
20260507053331 4 48 0.0 0.0 0.00 0.00 0.00 90 1016.6
20260507051831 4 48 0.0 1.6 0.00 0.00 0.00 90 1016.6
20260507050355 4 48 0.0 1.6 0.00 0.00 0.00 90 1016.6
20260507044818 4 48 0.0 0.0 0.00 0.10 0.00 89 1016.6
20260507043320 5 48 0.0 0.0 0.00 0.10 0.00 89 1016.6
20260507041825 5 48 0.0 0.0 0.00 0.10 0.00 88 1016.7
20260507040328 5 48 0.0 0.0 0.00 0.10 0.00 88 1016.6
20260507034849 5 48 0.0 0.0 0.00 0.10 0.00 88 1016.5
20260507033332 5 48 0.0 0.0 0.00 0.10 0.00 88 1016.4
20260507031854 6 48 0.0 0.0 0.00 0.10 0.00 87 1016.4
20260507030316 6 48 0.0 0.0 0.00 0.10 0.00 86 1016.3
20260507024821 -17 0.0 0.0 0.00 0.23 0.00 1016.3
20260507023322 -17 0.0 0.0 0.00 0.23 0.00 1016.1
20260507021822 -17 0.0 0.0 0.00 0.23 0.00 1016.0
20260507014839 -17 0.0 0.0 0.00 0.28 0.00 1015.5
20260507013340 -17 0.0 0.0 0.00 0.28 0.00 1015.3
20260507011823 -17 0.0 0.0 0.00 0.28 0.00 1015.2
20260507010326 -17 0.0 0.0 0.00 0.28 0.00 1015.2
20260507004830 -17 0.0 0.0 0.00 0.30 0.00 1015.1
20260507003329 -17 0.0 0.0 0.00 0.30 0.00 1014.9
20260507001830 -17 0.0 0.0 0.00 0.30 0.00 1014.8
20260507000314 -17 0.0 0.0 0.00 0.30 0.00 1014.6
20260506234814 -17 0.0 0.0 0.00 0.30 0.00 1014.5
20260506233320 -17 0.0 0.0 0.00 0.30 0.00 1014.4
20260506231821 -17 0.0 0.0 0.00 0.30 0.00 1014.4
20260506230317 16 47 17.7 29.0 0.00 0.30 0.00 50 1014.3
20260506224822 16 24 19.3 24.1 0.00 0.30 0.00 49 1014.3
20260506223322 16 355 11.3 24.1 0.00 0.30 0.00 51 1014.2
20260506221828 17 44 16.1 25.7 0.00 0.30 0.00 49 1014.1
20260506220327 16 51 9.7 19.3 0.00 0.30 0.00 52 1014.5
20260506214829 16 25 8.0 24.1 0.00 0.30 0.00 48 1014.5
20260506213354 16 22 12.9 19.3 0.00 0.30 0.00 54 1014.5
20260506211816 15 51 14.5 27.4 0.00 0.30 0.00 51 1014.7
20260506210320 15 350 9.7 25.7 0.00 0.30 0.00 53 1014.8
20260506204841 -17 0.0 0.0 0.00 0.30 0.00 1014.8
20260506203319 -17 0.0 0.0 0.00 0.30 0.00 1014.8
20260506201824 -17 0.0 0.0 0.00 0.30 0.00 1015.0
20260506200327 -17 0.0 0.0 0.00 0.30 0.00 1015.3
20260506194832 -17 0.0 0.0 0.00 0.30 0.00 1015.2
20260506193314 -17 0.0 0.0 0.00 0.30 0.00 1015.4
20260506191837 -17 0.0 0.0 0.00 0.30 0.00 1015.6
20260506184827 -17 0.0 0.0 0.00 0.30 0.00 1016.1
20260506183314 -17 0.0 0.0 0.00 0.30 0.00 1016.3
20260506173313 -17 0.0 0.0 0.00 0.30 0.00 1016.8
20260506170324 14 339 14.5 20.9 0.00 0.30 0.00 62 1017.0
20260506164828 14 350 6.4 29.0 0.00 0.30 0.00 60 1016.9
20260506163349 14 65 16.1 29.0 0.00 0.30 0.00 60 1016.7
20260506161829 13 348 12.9 20.9 0.00 0.30 0.00 66 1016.4
20260506160315 13 30 14.5 24.1 0.00 0.30 0.00 68 1015.9
20260506154816 13 41 17.7 25.7 0.00 0.30 0.00 68 1015.6
20260506153323 13 26 14.5 20.9 0.00 0.30 0.00 69 1015.7
20260506151826 12 346 9.7 20.9 0.00 0.30 0.00 71 1015.8
20260506150329 12 48 11.3 17.7 0.00 0.30 0.00 73 1015.9
20260506144814 11 54 8.0 16.1 0.00 0.30 0.00 77 1015.5
20260506143316 11 81 3.2 14.5 0.00 0.30 0.00 78 1015.5
20260506141838 11 45 9.7 16.1 0.00 0.30 0.00 77 1015.9
20260506140324 10 26 8.0 12.9 0.00 0.30 0.00 82 1015.8
20260506134826 10 71 6.4 14.5 0.00 0.30 0.00 84 1015.7
20260506133332 10 46 8.0 14.5 0.00 0.30 0.00 85 1015.7
20260506131814 8 51 4.8 8.0 0.00 0.30 0.00 89 1015.5
20260506130316 8 44 4.8 12.9 0.00 0.30 0.00 90 1015.3
20260506124822 8 325 3.2 6.4 0.00 0.30 0.00 91 1015.6
20260506123343 7 38 3.2 6.4 0.00 0.30 0.00 91 1015.4
20260506121827 7 25 1.6 6.4 0.00 0.30 0.00 91 1015.2
20260506120329 7 9 4.8 9.7 0.00 0.30 0.00 91 1014.7